Great Bend, NY

11:05 AM EDT on August 28, 2016 (GMT -0400)
Wheeler-Sack Army Air Field

Weather History for KGTB - March, 2014

Change the Weather History Date:

Friday, March 28, 2014

  Actual Average Record
Temperature  
Mean Temperature 38 °F -  
Max Temperature 45 °F 40 °F 77 °F (1998)
Min Temperature 32 °F 26 °F 10 °F (2015)
Degree Days  
Heating Degree Days 26    
Moisture  
Dew Point 37 °F    
Average Humidity 95    
Maximum Humidity 100    
Minimum Humidity 69    
Precipitation  
Precipitation 0.29 in - - ()
Sea Level Pressure  
Sea Level Pressure 29.86 in    
Wind  
Wind Speed 16 mph (South)    
Max Wind Speed 25 mph    
Max Gust Speed 33 mph    
Visibility 10 miles    
Events Rain    
Averages and records for this station are not official NWS values.
T = Trace of Precipitation, MM = Missing Value Source: NWS Daily Summary

Daily Weather History Graph

Daily Weather History Graph

Search for Another Location

Airport or City:

Trip Planner

Search our weather history database for the weather conditions in past years. The results will help you decide how hot, cold, wet, or windy it might be!

Date:

Astronomy

Mar. 28, 2014 Rise Set
Actual Time 6:51 AM EDT 7:25 PM EDT
Civil Twilight 6:22 AM EDT 7:54 PM EDT
Nautical Twilight 5:48 AM EDT 8:28 PM EDT
Astronomical Twilight 5:12 AM EDT 9:04 PM EDT
Moon 5:25 AM EDT 5:15 PM EDT
Length of Visible Light 13h 31m
Length of Day
12h 33m
Waning Crescent, 6% of the Moon is Illuminated
Mar 28
Waning Crescent
Mar 30
New
Apr 7
First Quarter
Apr 15
Full
Apr 22
Last Quarter

Hourly Weather History & Observations

Time (EDT) Temp. Windchill Dew Point Humidity Pressure Visibility Wind Dir Wind Speed Gust Speed Precip Events Conditions
12:58 AM 36.3 °F 27.1 °F 27.1 °F 69% 30.00 in 10.0 mi South 15.0 mph - N/A   Overcast
1:47 AM 35.6 °F 24.8 °F 28.4 °F 75% 29.96 in 10.0 mi South 19.6 mph - N/A   Overcast
1:55 AM 35.6 °F 25.2 °F 28.4 °F 75% 29.96 in 10.0 mi South 18.4 mph 25.3 mph N/A   Mostly Cloudy
1:58 AM 35.8 °F 25.1 °F 29.1 °F 77% 29.99 in 10.0 mi South 19.6 mph 25.3 mph 0.00 in   Mostly Cloudy
1:59 AM 35.6 °F 25.2 °F 30.2 °F 81% 29.96 in 9.0 mi South 18.4 mph 25.3 mph N/A   Overcast
2:04 AM 35.6 °F 25.2 °F 30.2 °F 81% 29.96 in 8.0 mi South 18.4 mph - N/A   Overcast
2:19 AM 33.8 °F 22.8 °F 32.0 °F 93% 29.96 in 10.0 mi South 18.4 mph - N/A Rain Light Rain
2:54 AM 32.0 °F 20.8 °F 32.0 °F 100% 29.92 in 10.0 mi SSE 17.3 mph - N/A   Mostly Cloudy
2:58 AM 33.1 °F 22.6 °F 32.4 °F 97% 29.94 in 10.0 mi SE 16.1 mph - 0.01 in   Scattered Clouds
3:58 AM 33.4 °F 22.7 °F 31.1 °F 91% 29.90 in 10.0 mi SSE 17.3 mph - N/A   Mostly Cloudy
4:16 AM 33.8 °F 23.5 °F 32.0 °F 93% 29.87 in 10.0 mi SSE 16.1 mph - N/A Rain Light Rain
4:37 AM 33.8 °F 23.5 °F 32.0 °F 93% 29.86 in 10.0 mi SSE 16.1 mph - N/A   Mostly Cloudy
4:39 AM 33.8 °F 23.5 °F 32.0 °F 93% 29.86 in 10.0 mi SSE 16.1 mph - N/A Rain Light Rain
4:58 AM 34.3 °F 23.5 °F 31.1 °F 88% 29.88 in 10.0 mi South 18.4 mph 25.3 mph 0.00 in Rain Light Rain
5:58 AM 34.5 °F 24.8 °F 33.6 °F 97% 29.88 in 10.0 mi SSE 15.0 mph - 0.04 in Rain Light Rain
6:13 AM 33.8 °F 22.2 °F 32.0 °F 93% 29.83 in 10.0 mi SSE 20.7 mph 24.2 mph N/A Rain Light Rain
6:58 AM 34.9 °F 23.6 °F 34.3 °F 98% 29.83 in 10.0 mi SSE 20.7 mph - 0.02 in Rain Light Rain
7:01 AM 35.6 °F 24.5 °F 33.8 °F 93% 29.79 in 10.0 mi SSE 20.7 mph - N/A   Overcast
7:15 AM 35.6 °F 24.2 °F 33.8 °F 93% 29.79 in 10.0 mi SSE 21.9 mph - N/A Rain Light Rain
7:31 AM 35.6 °F 24.5 °F 35.6 °F 100% 29.79 in 10.0 mi SSE 20.7 mph - N/A   Mostly Cloudy
7:58 AM 35.2 °F 24.1 °F 34.9 °F 99% 29.80 in 10.0 mi SSE 20.7 mph - 0.00 in   Mostly Cloudy
8:12 AM 37.4 °F 28.2 °F 35.6 °F 93% 29.79 in 10.0 mi SSE 16.1 mph 27.6 mph N/A Rain Light Rain
8:32 AM 37.4 °F 27.5 °F 35.6 °F 93% 29.77 in 10.0 mi SSE 18.4 mph - N/A   Overcast
8:58 AM 36.9 °F 26.2 °F 35.1 °F 93% 29.78 in 10.0 mi SSE 20.7 mph 28.8 mph 0.00 in   Overcast
9:58 AM 37.6 °F 26.6 °F 34.9 °F 90% 29.76 in 10.0 mi SSE 23.0 mph - N/A   Overcast
10:58 AM 38.5 °F 28.3 °F 34.7 °F 86% 29.75 in 10.0 mi SSE 20.7 mph 27.6 mph N/A   Overcast
11:04 AM 39.2 °F 28.3 °F 35.6 °F 87% 29.72 in 10.0 mi SE 25.3 mph 28.8 mph N/A   Light Drizzle
11:13 AM 39.2 °F 29.3 °F 35.6 °F 87% 29.73 in 10.0 mi SSE 20.7 mph - N/A   Overcast
11:48 AM 39.2 °F 31.2 °F 35.6 °F 87% 29.73 in 10.0 mi SSE 13.8 mph 20.7 mph N/A Rain Light Rain
11:58 AM 38.5 °F 28.6 °F 35.8 °F 90% 29.75 in 10.0 mi SE 19.6 mph - 0.00 in Rain Light Rain
12:53 PM 37.4 °F 28.2 °F 37.4 °F 100% 29.73 in 6.0 mi SE 16.1 mph - N/A   Overcast
12:58 PM 38.1 °F 29.5 °F 37.6 °F 98% 29.76 in 6.0 mi SE 15.0 mph - 0.07 in   Overcast
1:18 PM 37.4 °F 28.2 °F 37.4 °F 100% 29.73 in 7.0 mi SE 16.1 mph - N/A   Overcast
1:51 PM 39.2 °F 30.5 °F 39.2 °F 100% 29.72 in 10.0 mi South 16.1 mph 23.0 mph N/A   Overcast
1:54 PM 41.0 °F 32.5 °F 41.0 °F 100% 29.73 in 10.0 mi South 17.3 mph 24.2 mph N/A Rain Light Rain
1:58 PM 40.6 °F 32.0 °F 40.6 °F 100% 29.74 in 10.0 mi SSE 17.3 mph 24.2 mph 0.04 in Rain Light Rain
2:04 PM 41.0 °F 32.5 °F 41.0 °F 100% 29.73 in 10.0 mi South 17.3 mph - N/A   Overcast
2:22 PM 41.0 °F 33.9 °F 41.0 °F 100% 29.73 in 10.0 mi South 12.7 mph - N/A Rain Light Rain
2:34 PM 41.0 °F 34.3 °F 41.0 °F 100% 29.72 in 10.0 mi SSE 11.5 mph - N/A   Overcast
2:46 PM 41.0 °F 33.9 °F 39.2 °F 93% 29.72 in 10.0 mi SE 12.7 mph - N/A Rain Light Rain
2:56 PM 39.2 °F 32.5 °F 39.2 °F 100% 29.72 in 10.0 mi SSE 10.4 mph - N/A   Overcast
2:58 PM 39.2 °F 32.5 °F 39.2 °F 100% 29.74 in 10.0 mi SSE 10.4 mph - 0.01 in   Overcast
3:19 PM 42.8 °F 35.8 °F 41.0 °F 93% 29.72 in 10.0 mi South 13.8 mph 20.7 mph N/A Rain Light Rain
3:28 PM 42.8 °F 34.8 °F 41.0 °F 93% 29.72 in 10.0 mi South 17.3 mph - N/A   Overcast
3:58 PM 42.6 °F 34.9 °F 39.9 °F 90% 29.73 in 10.0 mi South 16.1 mph - 0.00 in   Overcast
4:58 PM 43.2 °F 35.3 °F 39.7 °F 88% 29.74 in 10.0 mi South 17.3 mph - N/A   Overcast
5:03 PM 42.8 °F 34.3 °F 39.2 °F 87% 29.72 in 10.0 mi South 19.6 mph - N/A Rain Light Rain
5:28 PM 42.8 °F 35.8 °F 41.0 °F 93% 29.74 in 9.0 mi SSW 13.8 mph - N/A Rain Light Rain
5:43 PM 42.8 °F 35.1 °F 41.0 °F 93% 29.75 in 10.0 mi South 16.1 mph - N/A Rain Light Rain
5:58 PM 41.9 °F 34.3 °F 41.2 °F 97% 29.78 in 10.0 mi South 15.0 mph - 0.01 in Rain Light Rain
6:58 PM 45.1 °F 38.4 °F 44.2 °F 97% 29.83 in 10.0 mi SW 15.0 mph 23.0 mph 0.01 in Rain Light Rain
7:03 PM 44.6 °F 37.4 °F 44.6 °F 100% 29.81 in 9.0 mi WSW 16.1 mph 28.8 mph N/A Rain Light Rain
7:33 PM 42.8 °F 35.1 °F 42.8 °F 100% 29.85 in 9.0 mi WSW 16.1 mph 20.7 mph N/A Rain Light Rain
7:38 PM 42.8 °F 34.5 °F 42.8 °F 100% 29.86 in 9.0 mi WSW 18.4 mph 26.5 mph N/A Rain Light Rain
7:48 PM 41.0 °F 31.9 °F 41.0 °F 100% 29.87 in 10.0 mi WSW 19.6 mph 33.4 mph N/A Rain Light Rain
7:58 PM 40.6 °F 32.7 °F 40.6 °F 100% 29.90 in 10.0 mi WSW 15.0 mph 26.5 mph 0.06 in Rain Light Rain
8:18 PM 39.2 °F 29.8 °F 39.2 °F 100% 29.89 in 10.0 mi West 18.4 mph 27.6 mph N/A Rain Light Rain
8:58 PM 39.2 °F 30.8 °F 39.2 °F 100% 29.96 in 10.0 mi WSW 15.0 mph 25.3 mph 0.02 in Rain Light Rain
9:12 PM 39.2 °F 30.8 °F 39.2 °F 100% 29.96 in 10.0 mi WSW 15.0 mph 20.7 mph N/A   Overcast
9:42 PM 37.4 °F 30.3 °F 37.4 °F 100% 29.99 in 9.0 mi West 10.4 mph 20.7 mph N/A   Light Drizzle
9:57 PM 37.4 °F 30.8 °F 37.4 °F 100% 30.00 in 8.0 mi WSW 9.2 mph - N/A   Light Drizzle
9:58 PM 37.4 °F 30.3 °F 37.4 °F 100% 30.02 in 8.0 mi WSW 10.4 mph 20.7 mph 0.00 in   Light Drizzle
10:04 PM 37.4 °F 29.8 °F 37.4 °F 100% 30.01 in 9.0 mi West 11.5 mph 20.7 mph N/A   Overcast
10:05 PM 37.4 °F 29.8 °F 37.4 °F 100% 30.01 in 9.0 mi West 11.5 mph 20.7 mph N/A   Light Drizzle
10:08 PM 37.4 °F 28.9 °F 37.4 °F 100% 30.01 in 10.0 mi WSW 13.8 mph 20.7 mph N/A   Overcast
10:31 PM 37.4 °F 31.4 °F 37.4 °F 100% 30.03 in 10.0 mi West 8.1 mph - N/A   Light Drizzle
10:36 PM 37.4 °F 32.1 °F 37.4 °F 100% 30.04 in 9.0 mi Variable 6.9 mph - N/A   Light Drizzle
10:58 PM 36.9 °F 32.2 °F 36.9 °F 100% 30.08 in 9.0 mi West 5.8 mph - 0.00 in   Light Drizzle
11:02 PM 37.4 °F 33.8 °F 37.4 °F 100% 30.07 in 9.0 mi Variable 4.6 mph - N/A   Overcast
11:07 PM 37.4 °F 33.8 °F 37.4 °F 100% 30.07 in 8.0 mi NW 4.6 mph - N/A   Overcast
11:42 PM 37.4 °F - 37.4 °F 100% 30.10 in 8.0 mi NNW 1.2 mph - N/A   Overcast
11:47 PM 37.4 °F - 37.4 °F 100% 30.11 in 10.0 mi NNW 2.3 mph - N/A   Overcast
11:58 PM 36.5 °F 33.9 °F 36.5 °F 100% 30.13 in 10.0 mi North 3.5 mph - 0.00 in   Overcast